TimeCST,TemperatureF,Dew PointF,Humidity,Sea Level PressureIn,VisibilityMPH,Wind Direction,Wind SpeedMPH,Gust SpeedMPH,PrecipitationIn,Events,Conditions,WindDirDegrees,DateUTC
12:15 AM,59.0,48.2,67,30.10,10.0,SSE,6.9,-,N/A,,Partly Cloudy,160,2013-03-09 06:15:00
12:35 AM,59.0,48.2,67,30.10,10.0,SSE,6.9,-,N/A,,Clear,160,2013-03-09 06:35:00
12:55 AM,59.0,48.2,67,30.08,10.0,SSE,5.8,-,N/A,,Clear,150,2013-03-09 06:55:00
1:15 AM,57.2,50.0,77,30.08,10.0,SSE,5.8,-,N/A,,Clear,150,2013-03-09 07:15:00
1:35 AM,57.2,50.0,77,30.08,10.0,SSE,5.8,-,N/A,,Clear,160,2013-03-09 07:35:00
1:55 AM,57.2,50.0,77,30.08,10.0,SSE,6.9,-,N/A,,Partly Cloudy,160,2013-03-09 07:55:00
2:15 AM,57.2,50.0,77,30.07,10.0,SSE,3.5,-,N/A,,Partly Cloudy,160,2013-03-09 08:15:00
2:35 AM,57.2,48.2,72,30.06,10.0,SSE,5.8,-,N/A,,Scattered Clouds,160,2013-03-09 08:35:00
2:55 AM,57.2,48.2,72,30.05,10.0,SSE,4.6,-,N/A,,Partly Cloudy,150,2013-03-09 08:55:00
3:15 AM,55.4,48.2,77,30.04,10.0,SSE,4.6,-,N/A,,Clear,160,2013-03-09 09:15:00
3:35 AM,55.4,48.2,77,30.03,10.0,SE,5.8,-,N/A,,Mostly Cloudy,140,2013-03-09 09:35:00
3:55 AM,55.4,48.2,77,30.02,10.0,SSE,5.8,-,N/A,,Mostly Cloudy,150,2013-03-09 09:55:00
4:15 AM,55.4,50.0,82,30.02,10.0,SSE,6.9,-,N/A,,Overcast,150,2013-03-09 10:15:00
4:35 AM,55.4,50.0,82,30.02,10.0,SSE,6.9,-,N/A,,Overcast,160,2013-03-09 10:35:00
4:55 AM,57.2,50.0,77,30.02,10.0,SSE,6.9,-,N/A,,Overcast,160,2013-03-09 10:55:00
5:15 AM,57.2,50.0,77,30.02,10.0,SSE,5.8,-,N/A,,Overcast,160,2013-03-09 11:15:00
5:35 AM,57.2,51.8,82,30.01,10.0,SSE,8.1,-,N/A,,Overcast,160,2013-03-09 11:35:00
5:55 AM,57.2,51.8,82,30.02,10.0,SSE,5.8,-,N/A,,Overcast,150,2013-03-09 11:55:00
6:15 AM,57.2,51.8,82,30.01,10.0,SSE,6.9,-,N/A,,Overcast,150,2013-03-09 12:15:00
6:35 AM,57.2,51.8,82,30.01,10.0,SSE,8.1,-,N/A,,Overcast,150,2013-03-09 12:35:00
6:55 AM,57.2,51.8,82,30.01,10.0,SSE,5.8,-,N/A,,Overcast,150,2013-03-09 12:55:00
7:15 AM,57.2,51.8,82,30.02,10.0,SSE,8.1,-,N/A,,Overcast,150,2013-03-09 13:15:00
7:35 AM,57.2,53.6,88,30.02,10.0,SSE,6.9,-,N/A,,Overcast,150,2013-03-09 13:35:00
7:55 AM,57.2,53.6,88,30.02,10.0,SE,8.1,-,N/A,,Overcast,140,2013-03-09 13:55:00
8:15 AM,59.0,53.6,82,30.02,10.0,SE,6.9,-,N/A,,Overcast,140,2013-03-09 14:15:00
8:35 AM,59.0,53.6,82,30.01,10.0,SE,6.9,-,N/A,,Overcast,130,2013-03-09 14:35:00
8:55 AM,60.8,53.6,77,30.01,10.0,SE,9.2,-,N/A,,Overcast,140,2013-03-09 14:55:00
9:15 AM,60.8,55.4,82,30.01,10.0,SSE,8.1,-,N/A,,Overcast,150,2013-03-09 15:15:00
9:35 AM,60.8,55.4,82,30.01,10.0,SSE,12.7,-,N/A,,Overcast,150,2013-03-09 15:35:00
9:55 AM,62.6,55.4,77,30.00,10.0,SSE,9.2,-,N/A,,Overcast,150,2013-03-09 15:55:00
10:15 AM,64.4,57.2,77,30.00,10.0,South,13.8,21.9,N/A,,Overcast,170,2013-03-09 16:15:00
10:35 AM,64.4,57.2,77,29.99,10.0,SSE,16.1,20.7,N/A,,Overcast,160,2013-03-09 16:35:00
10:55 AM,64.4,57.2,77,29.99,10.0,SSE,11.5,17.3,N/A,,Overcast,160,2013-03-09 16:55:00
11:15 AM,66.2,57.2,73,29.97,10.0,SSE,18.4,24.2,N/A,,Overcast,160,2013-03-09 17:15:00
11:35 AM,66.2,57.2,73,29.97,10.0,South,16.1,23.0,N/A,,Overcast,170,2013-03-09 17:35:00
11:55 AM,66.2,57.2,73,29.96,10.0,South,16.1,23.0,N/A,,Overcast,170,2013-03-09 17:55:00
12:15 PM,66.2,57.2,73,29.95,10.0,South,10.4,18.4,N/A,,Overcast,170,2013-03-09 18:15:00
12:35 PM,66.2,57.2,73,29.94,10.0,SSE,11.5,-,N/A,,Overcast,160,2013-03-09 18:35:00
12:55 PM,68.0,57.2,68,29.92,10.0,South,17.3,25.3,N/A,,Overcast,170,2013-03-09 18:55:00
1:15 PM,69.8,59.0,68,29.91,10.0,SSE,13.8,23.0,N/A,,Overcast,160,2013-03-09 19:15:00
1:35 PM,69.8,59.0,68,29.89,10.0,South,13.8,21.9,N/A,,Overcast,180,2013-03-09 19:35:00
1:55 PM,69.8,59.0,68,29.88,10.0,SSE,11.5,16.1,N/A,,Overcast,160,2013-03-09 19:55:00
2:15 PM,69.8,59.0,68,29.87,10.0,SSE,11.5,-,N/A,,Overcast,160,2013-03-09 20:15:00
2:35 PM,69.8,59.0,68,29.86,10.0,SSE,13.8,18.4,N/A,,Overcast,160,2013-03-09 20:35:00
2:55 PM,71.6,59.0,64,29.86,10.0,South,10.4,-,N/A,,Overcast,170,2013-03-09 20:55:00
3:15 PM,73.4,59.0,61,29.85,10.0,South,17.3,23.0,N/A,,Mostly Cloudy,170,2013-03-09 21:15:00
3:35 PM,73.4,59.0,61,29.85,10.0,South,17.3,-,N/A,,Mostly Cloudy,180,2013-03-09 21:35:00
3:55 PM,73.4,57.2,57,29.84,10.0,SSE,12.7,23.0,N/A,,Mostly Cloudy,160,2013-03-09 21:55:00
4:15 PM,73.4,57.2,57,29.84,10.0,South,18.4,25.3,N/A,,Overcast,180,2013-03-09 22:15:00
4:35 PM,71.6,57.2,60,29.84,10.0,South,15.0,21.9,N/A,,Overcast,180,2013-03-09 22:35:00
4:55 PM,69.8,57.2,64,29.84,10.0,SSE,15.0,25.3,N/A,,Overcast,160,2013-03-09 22:55:00
5:15 PM,69.8,55.4,60,29.83,10.0,SSE,12.7,26.5,N/A,,Overcast,160,2013-03-09 23:15:00
5:35 PM,69.8,57.2,64,29.82,10.0,South,18.4,24.2,N/A,,Overcast,170,2013-03-09 23:35:00
5:55 PM,69.8,55.4,60,29.81,10.0,SSE,17.3,26.5,N/A,,Overcast,160,2013-03-09 23:55:00
6:15 PM,68.0,55.4,64,29.81,10.0,SSE,13.8,23.0,N/A,,Overcast,160,2013-03-10 00:15:00
6:35 PM,68.0,55.4,64,29.81,10.0,South,19.6,24.2,N/A,,Overcast,170,2013-03-10 00:35:00
6:55 PM,68.0,57.2,68,29.81,10.0,SSE,12.7,18.4,N/A,,Overcast,160,2013-03-10 00:55:00
7:15 PM,66.2,57.2,73,29.82,10.0,SSE,12.7,21.9,N/A,,Overcast,150,2013-03-10 01:15:00
7:35 PM,66.2,57.2,73,29.83,10.0,South,16.1,20.7,N/A,,Overcast,170,2013-03-10 01:35:00
7:55 PM,66.2,55.4,68,29.82,10.0,South,12.7,21.9,N/A,,Overcast,170,2013-03-10 01:55:00
8:15 PM,66.2,57.2,73,29.83,10.0,SSE,10.4,18.4,N/A,,Overcast,160,2013-03-10 02:15:00
8:35 PM,66.2,57.2,73,29.83,10.0,South,13.8,-,N/A,,Overcast,170,2013-03-10 02:35:00
8:55 PM,66.2,57.2,73,29.84,10.0,South,12.7,16.1,N/A,,Overcast,170,2013-03-10 02:55:00
9:15 PM,64.4,57.2,77,29.84,10.0,SSE,11.5,18.4,N/A,,Overcast,160,2013-03-10 03:15:00
9:35 PM,64.4,57.2,77,29.86,10.0,SSE,9.2,-,N/A,,Overcast,150,2013-03-10 03:35:00
9:55 PM,62.6,59.0,88,29.87,8.0,SSE,6.9,-,N/A,,Overcast,160,2013-03-10 03:55:00
10:15 PM,62.6,59.0,88,29.87,7.0,SSE,6.9,-,N/A,,Overcast,150,2013-03-10 04:15:00
10:35 PM,62.6,59.0,88,29.87,9.0,SE,6.9,-,N/A,,Overcast,140,2013-03-10 04:35:00
10:55 PM,62.6,59.0,88,29.84,10.0,SE,9.2,-,N/A,,Overcast,140,2013-03-10 04:55:00
11:15 PM,62.6,59.0,88,29.83,10.0,SE,8.1,-,N/A,,Overcast,140,2013-03-10 05:15:00
11:35 PM,62.6,59.0,88,29.83,10.0,SE,9.2,-,N/A,,Overcast,130,2013-03-10 05:35:00
11:55 PM,62.6,59.0,88,29.82,10.0,SE,8.1,-,N/A,,Mostly Cloudy,130,2013-03-10 05:55:00